Voltar ao catálogo

HGS 4

GALAXY 4

AtivoComunicaçõesGEO
NORAD 22694·PAYLOAD·🇺🇸 United States

Lançado Jun 25, 1993 de Guiana Space Centre

Loading…

TLE

AtualizadoSource: Space-Track

Época: Sep 12, 2026, 22:11 UTC

1 22694U 93039A   26255.92499029 -.00000091  00000-0  00000+0 0  9991
2 22694  14.5624 354.4560 0011208  51.1130 351.3381  1.00269411119882

Acompanhe HGS 4 em tempo real com AllMySat

Download on the App Store